RH
67 66 70 80 90 94 93 92 93 85 92 89 89 89 92 100 100 97 88 80 77 71 66 73 74 56 46
69 78 79 88 97 100 94 91 95 95 98 94 97 100 100 100 100 98 86 78 80 72 71 74 80 96 66
73 78 86 92 93 94 97 98 95 100 100 93 94 99 99 99 99 98 88 83 81 72 69 74 83 95 91
76 80 77 79 86 97 97 98 99 99 99 91 91 98 99 98 98 96 88 86 82 74 68 70 84 99 90
72 72 74 75 87 94 99 96 100 99 99 98 100 100 99 98 99 93 89 91 81 70 57 64 83 98 100
68 65 62 68 85 99 98 100 100 90 90 94 98 99 99 99 97 93 95 86 74 60 43 61 84 91 100
65 67 69 67 76 92 98 97 100 93 95 94 98 100 100 98 94 88 88 73 43 18 15 41 81 87 98
75 67 80 73 80 90 99 100 100 99 99 99 99 99 98 97 88 78 74 32 13 12 12 14 59 81 87
75 75 77 83 93 99 99 100 98 98 98 100 99 96 99 94 42 30 16 14 15 14 10 12 25 58 76
76 77 77 89 100 100 100 99 98 99 97 99 97 99 90 57 36 20 17 14 17 18 16 11 12 16 36
87 87 97 99 100 100 98 94 96 95 92 97 98 98 71 17 25 19 19 19 18 22 26 27 22 17 14
96 100 99 98 99 100 100 100 100 100 99 99 59 80 72 48 19 17 19 20 20 30 32 36 36 33 28
99 98 100 100 99 99 100 100 94 100 99 74 70 28 30 42 16 22 16 17 24 28 30 32 35 34 34
99 99 100 99 99 82 51 51 68 68 66 68 71 56 20 19 17 16 20 25 24 26 29 32 34 35 33
100 99 100 100 93 56 35 43 52 54 54 60 64 46 18 21 20 19 22 25 25 27 29 32 33 35 35
100 99 99 100 93 48 37 38 37 37 44 41 36 27 17 21 21 24 26 28 27 27 27 28 29 30 30
99 99 99 98 100 58 36 33 32 34 29 24 22 19 15 21 23 22 23 24 27 28 28 28 29 29 27
Wind_Speed
19 19 19 20 20 20 21 21 22 24 25 21 20 23 22 21 19 17 16 17 21 19 18 19 17 18 19
21 21 21 20 21 22 22 22 23 24 17 15 18 19 19 17 16 16 16 18 20 18 17 16 11 19 16
22 22 21 22 23 21 20 23 23 18 17 18 18 17 17 17 17 16 15 17 18 16 15 14 10 15 13
23 22 21 21 22 22 23 22 21 19 19 19 19 18 18 17 17 17 17 19 17 14 14 13 10 11 13
25 23 24 23 23 20 21 21 20 20 19 19 19 18 19 19 18 17 19 18 15 13 12 11 10 4 3
25 25 26 24 22 20 20 21 19 17 19 19 20 20 19 18 18 19 19 15 13 12 11 11 13 8 3
27 27 24 22 20 20 20 21 19 16 16 17 19 20 19 17 17 16 14 13 12 11 11 12 15 12 10
27 24 23 21 21 18 18 20 18 17 18 19 17 17 17 17 17 15 13 12 10 10 11 12 14 15 12
28 25 25 23 22 22 24 23 21 20 19 19 17 17 19 18 15 14 12 10 10 9 10 12 13 15 17
28 28 26 25 23 24 21 23 23 22 21 22 21 18 13 18 17 14 11 10 9 7 7 10 12 13 13
28 26 25 24 24 24 22 23 22 24 16 21 25 23 18 6 15 15 14 13 11 10 9 8 9 11 12
29 29 28 26 26 25 24 25 24 23 22 23 16 18 21 19 8 16 16 14 12 12 12 11 9 9 9
31 29 26 21 23 26 26 27 25 26 27 23 20 14 16 20 14 8 17 13 14 14 13 13 14 13 12
32 26 24 25 27 26 26 27 26 26 26 23 22 19 18 18 18 14 10 10 15 16 16 16 15 13 13
31 28 29 28 28 27 24 26 27 27 25 24 23 22 19 18 19 16 14 14 11 14 16 15 15 16 16
34 31 32 29 29 28 27 27 26 25 25 25 25 24 22 22 19 17 17 16 16 14 12 15 16 16 15
36 33 32 28 29 30 28 27 26 26 24 24 26 26 26 24 19 19 17 16 16 17 16 16 15 17 16
Wind_Direction
216 229 233 236 239 241 249 255 262 271 271 260 257 260 262 265 265 267 283 300 305 293 287 284 284 285 264
228 230 234 236 243 248 257 258 266 275 260 265 259 261 266 266 264 273 282 297 299 286 286 280 288 304 279
232 232 235 241 250 255 257 264 271 259 253 259 262 264 266 265 264 271 282 299 290 278 278 269 271 306 307
236 238 245 248 253 252 259 263 257 253 250 255 256 257 261 264 265 273 284 295 276 268 270 263 261 338 296
238 244 248 250 253 260 258 257 250 249 253 254 256 256 259 262 265 270 285 277 263 263 259 246 239 269 116
242 247 253 257 257 251 253 240 247 247 251 253 254 254 253 256 263 279 275 262 258 251 246 245 230 216 44
249 250 257 262 255 241 239 239 238 246 258 257 249 248 245 249 266 267 258 259 257 245 234 229 227 233 220
250 258 254 248 242 242 240 239 239 244 249 249 247 241 245 258 257 248 247 248 242 242 228 221 225 227 229
248 248 247 241 236 231 226 227 231 237 236 236 241 244 252 251 242 236 229 225 221 220 214 219 223 231 226
247 245 243 241 235 233 232 229 228 228 228 230 240 244 245 233 230 230 224 213 214 196 199 208 216 217 229
241 238 236 239 234 232 230 230 231 230 231 230 237 238 225 225 219 217 213 209 202 188 186 192 196 201 205
234 238 236 233 234 233 232 230 226 233 235 237 232 224 224 229 229 207 209 206 197 195 194 194 196 198 198
235 238 236 240 241 237 229 225 223 221 229 231 217 216 224 224 212 194 205 204 206 205 206 205 205 203 207
236 237 234 235 234 229 227 225 225 224 227 218 213 215 222 216 212 208 193 195 211 211 212 215 215 214 218
234 229 228 232 228 226 225 227 226 226 222 218 213 214 216 216 213 206 199 204 212 211 216 218 223 226 224
235 228 227 232 228 223 222 225 228 227 225 221 216 213 214 215 213 206 206 208 216 219 216 220 224 229 228
240 233 228 232 233 225 222 224 227 226 225 223 219 214 213 215 211 208 213 215 223 227 227 227 223 230 230